Weather History for Atlanta, GA

Change the Weather History Date:

Thursday, February 6, 2014

  Actual Average Record
Temperature  
Mean Temperature 35 °F 45 °F  
Max Temperature 42 °F 55 °F 73 °F (1999)
Min Temperature 28 °F 36 °F 13 °F (1917)
Degree Days  
Heating Degree Days 30 20  
Month to date heating degree days 112 120  
Since 1 July heating degree days 2023 1874  
Cooling Degree Days 0 0  
Month to date cooling degree days 0 0  
Year to date cooling degree days 0 0  
Moisture  
Dew Point 23 °F    
Average Humidity 63    
Maximum Humidity 75    
Minimum Humidity 51    
Precipitation  
Precipitation T in 0.17 in 2.68 in (1958)
Month to date precipitation 1.06 1.01  
Year to date precipitation 4.41 5.21  
Snow  
Snow 0.00 in 0.00 in T in (2010)
Month to date snowfall 0.0 0.1  
Since 1 July snowfall 3.0 1.8  
Snow Depth 0.00 in    
Sea Level Pressure  
Sea Level Pressure 30.28 in    
Wind  
Wind Speed 10 mph (NNW)    
Max Wind Speed 23 mph    
Max Gust Speed 31 mph    
Visibility 10 miles    
Events      
T = Trace of Precipitation, MM = Missing Value Source: NWS Daily Summary

Daily Weather History Graph

Daily Weather History Graph

Search for Another Location

Airport:

Trip Planner

Search our weather history database for the weather conditions in past years. The results will help you decide how hot, cold, wet, or windy it might be!

Date:

Astronomy

Feb. 06, 2014 Rise Set
Actual Time 7:30 AM EST 6:13 PM EST
Civil Twilight 7:04 AM EST 6:39 PM EST
Nautical Twilight 6:34 AM EST 7:09 PM EST
Astronomical Twilight 6:05 AM EST 7:38 PM EST
Moon 11:46 AM EST (2/6) 12:45 AM EST (2/6)
Length of Visible Light 11h 35m
Length of Day
10h 43m
Waxing Crescent, 49% of the Moon is Illuminated
Feb 6
Waxing Crescent
Feb 6
First Quarter
Feb 14
Full
Feb 22
Last Quarter
Mar 1
New

Hourly Weather History & Observations

Time (EST) Temp. Windchill Dew Point Humidity Pressure Visibility Wind Dir Wind Speed Gust Speed Precip Events Conditions
12:52 AM 30.9 °F 19.4 °F 23.0 °F 72% 30.23 in 10.0 mi NNW 17.3 mph 26.5 mph N/A   Mostly Cloudy
1:19 AM 30.2 °F 19.8 °F 21.2 °F 69% 30.21 in 10.0 mi North 13.8 mph 19.6 mph N/A   Mostly Cloudy
1:52 AM 28.9 °F 19.2 °F 21.9 °F 75% 30.23 in 10.0 mi NNW 11.5 mph - N/A   Mostly Cloudy
2:52 AM 28.9 °F 19.2 °F 21.0 °F 72% 30.24 in 10.0 mi NNW 11.5 mph - N/A   Mostly Cloudy
3:52 AM 28.0 °F 15.7 °F 21.0 °F 75% 30.25 in 10.0 mi NNW 17.3 mph - N/A   Mostly Cloudy
4:52 AM 28.9 °F 19.8 °F 21.0 °F 72% 30.25 in 10.0 mi NW 10.4 mph - N/A   Mostly Cloudy
5:52 AM 28.0 °F 17.5 °F 19.9 °F 72% 30.27 in 10.0 mi NNW 12.7 mph - N/A   Overcast
6:52 AM 28.9 °F 18.6 °F 21.0 °F 72% 30.27 in 10.0 mi NNW 12.7 mph - N/A   Overcast
7:52 AM 28.9 °F 19.2 °F 21.0 °F 72% 30.31 in 10.0 mi NW 11.5 mph - N/A   Overcast
8:52 AM 30.0 °F 20.0 °F 21.0 °F 69% 30.32 in 10.0 mi NNW 12.7 mph 19.6 mph N/A   Mostly Cloudy
9:52 AM 30.9 °F 21.2 °F 21.0 °F 67% 30.33 in 10.0 mi NNW 12.7 mph - N/A   Mostly Cloudy
10:52 AM 33.1 °F 27.7 °F 21.9 °F 64% 30.35 in 10.0 mi Variable 5.8 mph - N/A   Mostly Cloudy
11:52 AM 39.0 °F 34.0 °F 25.0 °F 57% 30.32 in 10.0 mi Variable 6.9 mph - N/A   Mostly Cloudy
12:52 PM 41.0 °F - 24.1 °F 51% 30.29 in 10.0 mi Calm Calm - N/A   Mostly Cloudy
1:52 PM 42.1 °F 36.6 °F 26.1 °F 53% 30.26 in 10.0 mi NNW 9.2 mph - N/A   Mostly Cloudy
1:57 PM 42.8 °F - 26.6 °F 53% 30.23 in 10.0 mi Calm Calm - N/A   Mostly Cloudy
2:52 PM 41.0 °F 34.7 °F 25.0 °F 53% 30.23 in 10.0 mi NNW 10.4 mph - N/A   Mostly Cloudy
3:52 PM 39.0 °F 32.3 °F 25.0 °F 57% 30.27 in 10.0 mi NW 10.4 mph - N/A   Overcast
4:52 PM 37.0 °F 27.7 °F 24.1 °F 59% 30.31 in 10.0 mi NW 16.1 mph - N/A   Overcast
5:52 PM 36.0 °F 30.3 °F 23.0 °F 59% 30.32 in 10.0 mi NNW 6.9 mph - N/A   Overcast
6:52 PM 36.0 °F 26.3 °F 23.0 °F 59% 30.32 in 10.0 mi NNW 16.1 mph - N/A   Overcast
7:52 PM 34.0 °F 28.8 °F 24.1 °F 67% 30.32 in 10.0 mi North 5.8 mph - N/A   Overcast
8:52 PM 34.0 °F 28.0 °F 24.1 °F 67% 30.31 in 10.0 mi NNW 6.9 mph - 0.00 in   Overcast
9:52 PM 34.0 °F 29.8 °F 24.1 °F 67% 30.32 in 10.0 mi NNW 4.6 mph - N/A   Overcast
10:52 PM 34.0 °F 29.8 °F 23.0 °F 64% 30.32 in 10.0 mi NW 4.6 mph - N/A   Overcast
11:52 PM 34.0 °F 29.8 °F 23.0 °F 64% 30.29 in 10.0 mi NW 4.6 mph - N/A   Mostly Cloudy